Temperature
18 18 18 18 18 17 17 17 17 17 17 17 17 17 17 17 17 17 17 17 17 16 16 16 16 16 16 16 16 16 16 16 16 16 16 16 16 16 16 16 16 16 16
18 18 18 18 17 17 17 17 17 17 17 17 17 17 17 17 17 17 16 16 16 16 16 16 16 16 16 16 16 15 15 16 16 15 16 15 15 16 16 16 16 16 16
18 18 17 17 17 17 17 17 17 17 17 17 17 16 16 17 16 16 16 16 16 16 16 16 16 16 15 15 15 15 15 15 15 15 16 16 16 15 15 16 16 16 15
18 18 18 17 17 17 17 17 16 16 17 17 16 17 17 17 17 17 16 16 16 16 16 16 16 15 15 15 15 15 15 15 15 15 15 16 16 16 15 15 15 15 15
18 18 18 18 17 17 17 17 16 16 16 17 17 16 17 17 17 17 16 16 16 16 16 16 15 15 15 15 15 15 15 15 15 15 15 15 15 15 15 15 15 15 15
18 17 17 17 17 17 17 16 16 16 16 16 16 16 17 17 17 17 16 16 16 16 16 15 15 15 15 15 15 15 15 15 15 15 15 15 15 15 15 15 15 15 15
18 17 17 17 17 17 17 17 16 16 16 16 16 17 17 17 17 17 17 16 16 16 16 15 15 15 15 15 15 15 15 15 15 15 15 15 15 15 15 15 15 15 15
18 18 18 17 17 17 17 17 17 17 17 17 17 17 17 17 17 17 17 16 16 16 16 15 15 15 15 15 14 14 14 14 14 14 14 14 14 14 14 14 14 14 14
18 18 18 18 18 18 17 17 17 17 17 17 17 16 16 17 17 17 16 16 16 16 15 15 15 15 15 15 14 14 14 14 14 14 14 14 14 14 14 14 14 14 14
18 18 18 18 18 18 18 17 17 17 17 17 17 17 16 16 16 16 16 16 16 16 16 15 15 15 15 15 14 14 14 14 14 14 14 14 14 14 14 14 14 14 13
19 19 19 19 18 18 18 17 17 17 17 17 17 17 17 17 16 16 16 16 16 16 16 16 15 15 15 15 14 14 14 14 14 14 14 14 13 13 13 13 13 13 13
19 19 19 19 18 18 18 18 18 17 17 17 17 17 17 17 16 16 16 16 16 16 16 16 15 15 15 15 14 14 14 14 14 14 14 13 13 13 13 13 13 13 13
19 19 19 19 19 18 18 18 18 18 17 17 17 17 17 17 17 17 16 16 16 16 16 16 15 15 15 15 15 14 14 14 14 14 14 14 13 13 13 13 13 13 13
19 19 19 19 19 19 19 18 18 18 18 17 17 17 17 17 17 17 17 16 16 16 16 16 16 15 15 15 15 14 14 14 14 14 14 14 14 13 13 13 13 13 13
19 19 19 19 19 19 19 19 19 18 18 18 18 18 17 17 17 17 17 16 16 16 16 16 16 15 15 15 15 14 14 14 14 14 14 14 13 13 13 13 13 13 13
19 19 19 19 19 19 19 19 19 19 18 18 18 18 18 17 17 17 17 16 16 16 16 16 16 15 15 15 15 15 14 14 14 14 14 14 13 13 13 13 13 13 13
19 19 19 20 20 20 20 20 19 19 19 18 18 18 18 17 17 17 17 17 16 16 16 16 16 15 15 15 15 14 14 14 14 14 14 14 14 14 13 13 13 13 13
18 19 19 19 20 20 19 19 19 19 19 18 18 18 18 18 17 17 17 17 17 16 16 16 16 15 15 15 15 14 14 14 14 14 14 14 14 14 13 13 13 13 13
18 19 19 19 19 19 19 19 19 19 18 18 18 18 18 18 17 17 17 17 17 16 16 16 16 15 15 15 15 14 14 14 14 14 14 14 14 13 13 13 13 13 13
17 18 19 19 19 19 19 19 18 18 18 18 18 18 18 18 18 17 17 17 17 16 16 16 16 15 15 15 14 14 14 14 14 14 14 14 13 13 13 12 12 13 13
17 17 18 18 18 18 18 18 18 18 18 18 18 17 17 17 17 17 17 17 16 16 16 16 15 15 15 14 14 14 14 14 14 14 14 14 13 13 13 12 12 12 12
16 16 17 17 17 17 17 17 17 17 17 17 17 17 17 16 16 16 16 16 16 15 15 15 15 15 15 14 14 14 13 13 13 13 13 13 13 13 12 12 12 12 12
15 15 16 16 16 16 17 16 16 16 16 16 16 16 16 15 15 15 15 15 15 15 15 14 14 14 14 14 14 13 13 13 13 13 13 13 12 12 12 12 12 11 11
14 14 15 15 15 15 15 15 15 15 15 15 15 15 15 15 15 14 14 14 14 14 14 14 14 14 13 13 13 13 13 13 12 12 12 12 12 12 11 11 11 11 11
13 14 14 14 14 14 14 14 14 14 14 14 14 14 14 14 14 14 14 14 14 13 13 13 13 13 13 13 13 12 12 12 12 12 11 11 11 11 11 11 11 10 10
13 13 13 13 13 13 13 13 14 14 14 14 14 14 13 13 13 13 13 13 13 13 12 12 12 12 12 12 12 12 11 11 11 11 11 11 10 10 10 10 10 10 10
Wind_Speed
6 6 8 9 10 10 11 12 12 11 10 8 7 7 6 5 4 5 9 10 10 11 9 6 5 5 4 4 4 3 3 2 1 2 3 3 4 4 3 2 2 1 1
5 7 8 9 11 12 13 13 12 11 11 8 6 5 5 4 3 4 6 9 10 10 9 7 5 5 4 4 3 3 3 2 2 2 3 2 3 3 4 3 2 2 2
8 8 9 10 11 13 15 14 13 12 11 9 6 5 4 4 3 3 4 5 9 10 9 9 7 6 5 5 4 4 4 3 2 1 3 3 3 1 2 3 3 2 1
7 7 8 9 11 12 13 12 12 12 11 11 11 11 8 6 5 5 4 4 7 9 10 9 8 6 5 5 4 3 3 4 2 1 2 1 3 3 1 2 2 3 2
8 8 8 9 9 10 11 12 12 10 10 11 12 11 7 5 4 5 6 5 4 6 8 9 8 6 5 5 4 4 3 3 3 3 2 2 2 2 2 1 2 2 2
7 6 6 7 8 9 9 11 11 9 10 11 11 11 11 9 9 7 7 5 4 3 5 8 7 6 5 5 4 4 5 3 3 3 2 3 2 2 2 2 1 1 2
8 8 8 8 9 11 11 11 11 10 11 11 11 10 11 11 11 9 8 7 5 3 5 6 6 5 5 6 5 4 4 4 4 4 2 2 2 2 3 3 2 0 1
8 9 9 9 9 10 11 11 11 10 11 11 10 9 9 8 7 8 7 8 6 5 6 6 7 7 7 6 5 4 4 3 4 4 3 2 2 2 3 3 3 2 1
8 9 9 9 9 10 10 11 11 10 10 10 9 8 8 8 8 7 7 6 5 5 7 7 7 6 7 6 6 4 4 4 4 4 4 2 2 2 2 3 3 4 2
7 8 9 9 9 9 8 9 9 10 9 10 9 9 8 8 8 7 8 8 7 6 8 7 7 7 6 6 5 4 4 5 4 3 4 3 2 2 2 2 2 2 3
9 9 9 9 9 8 9 9 9 9 9 9 9 9 9 8 8 8 9 8 8 8 9 9 8 8 7 7 6 5 6 6 5 4 5 4 4 3 3 2 3 3 3
8 8 9 10 9 10 10 10 10 10 10 9 9 9 8 9 9 9 9 9 9 9 9 9 9 8 8 7 8 8 7 7 7 6 6 5 4 4 3 3 4 4 4
8 7 8 10 11 11 11 11 11 11 10 10 10 9 9 10 10 10 9 9 9 8 8 9 10 9 9 9 8 8 8 8 8 7 8 7 6 6 5 5 5 4 4
7 8 8 8 10 11 12 12 12 11 11 11 11 11 11 11 10 10 9 9 9 9 9 10 10 9 9 9 9 8 8 8 8 8 8 8 8 8 8 6 6 5 5
6 8 9 9 9 9 11 12 12 11 11 12 12 11 10 9 9 9 9 9 9 10 9 9 9 8 8 9 9 9 9 9 8 8 8 9 10 11 9 7 7 7 6
6 7 8 9 10 11 11 11 11 11 11 12 12 10 10 10 10 10 10 9 9 8 8 10 10 9 9 11 13 11 9 9 9 9 8 8 10 12 13 13 12 10 9
5 6 7 8 9 10 10 12 11 11 12 12 11 10 11 11 11 10 10 10 10 9 9 9 9 9 9 11 12 14 10 9 9 9 8 8 8 10 9 11 13 13 15
2 4 5 6 7 7 8 9 9 11 12 11 11 11 11 11 10 10 11 10 8 9 9 9 9 9 9 11 12 13 10 9 9 9 9 9 9 8 9 8 9 9 10
1 2 3 4 5 6 8 8 8 9 10 10 11 11 11 11 10 10 10 9 8 8 8 7 8 9 9 11 12 11 7 8 9 9 9 9 9 10 10 8 9 9 9
5 4 2 3 4 5 8 9 8 8 8 8 8 8 9 10 10 10 9 7 7 8 8 7 8 9 8 9 11 11 7 8 8 7 8 11 11 10 10 9 9 10 10
6 6 6 5 3 4 8 9 7 7 6 5 5 5 6 8 8 7 6 6 7 6 7 7 6 7 8 8 11 11 8 8 8 7 7 7 10 11 11 10 9 11 9
8 8 8 8 6 5 8 8 6 4 4 6 5 4 4 4 5 5 5 5 6 6 5 5 4 4 4 6 7 10 11 9 7 7 6 6 7 9 10 9 10 12 9
8 8 9 10 9 9 8 7 4 4 6 6 5 3 3 3 3 4 5 4 4 4 3 3 4 3 2 3 6 7 9 10 7 6 7 6 7 8 7 10 11 9 6
8 8 10 11 9 9 8 6 4 5 7 6 5 4 4 3 3 2 3 3 3 3 3 3 3 3 2 2 2 3 4 5 6 6 5 5 5 5 6 6 6 6 6
7 8 9 9 9 9 9 7 6 7 8 7 6 5 4 4 3 3 2 2 1 2 3 3 3 2 2 3 3 2 2 3 4 3 2 2 3 4 4 5 5 5 5
9 10 9 9 9 9 9 8 7 7 8 7 6 4 4 3 3 4 4 6 5 5 4 2 2 1 1 1 0 1 2 2 2 2 2 3 4 4 5 5 6 5 6
Wind_Direction
185 178 180 176 173 172 173 179 177 170 163 164 167 167 172 167 162 166 167 168 166 166 162 159 155 152 148 149 139 117 97 67 64 83 47 25 33 43 34 39 55 35 24
182 183 185 184 181 180 178 180 181 172 172 173 168 163 152 149 151 150 154 165 165 165 168 161 161 156 144 141 144 134 122 83 63 113 99 45 10 11 21 27 46 32 39
193 192 188 185 182 183 183 183 180 177 176 165 146 135 115 106 123 143 154 163 166 166 163 162 157 158 156 160 163 154 140 134 73 77 136 144 195 309 354 15 24 17 26
195 192 186 182 184 182 180 176 173 176 176 166 165 163 163 164 172 166 157 152 161 162 159 157 157 156 155 157 165 158 146 141 145 100 67 108 144 143 91 352 4 16 28
193 192 189 181 173 170 171 171 171 174 172 170 170 168 163 155 140 136 139 140 141 152 156 156 155 153 154 155 151 146 148 150 154 153 139 106 78 91 135 155 340 0 8
185 187 175 158 158 157 158 162 166 169 168 170 168 166 160 151 147 150 155 151 141 142 153 157 156 155 154 157 158 155 152 152 146 147 149 153 150 156 143 151 182 314 327
176 178 167 160 162 162 161 162 167 168 167 169 168 167 163 160 164 164 165 159 158 162 170 158 157 159 163 162 158 157 158 158 153 154 157 162 161 150 145 140 149 178 322
178 182 176 171 169 164 163 163 168 166 166 170 169 165 163 163 168 167 166 171 174 171 166 164 165 164 164 162 159 159 166 162 159 160 155 151 160 161 159 154 148 141 342
177 182 179 173 171 169 171 170 169 163 164 165 160 161 164 167 170 168 165 168 167 167 165 166 168 168 166 163 161 169 171 163 167 168 165 159 167 171 168 158 158 156 178
176 178 181 177 175 174 171 166 166 167 165 165 168 172 171 175 171 166 173 176 174 168 166 171 173 171 169 168 167 169 170 166 172 173 170 173 175 170 167 168 168 166 170
184 183 183 178 173 168 169 170 169 166 167 170 170 167 172 173 172 179 186 183 177 175 178 179 178 179 178 174 175 181 176 179 184 184 186 194 182 179 177 172 172 176 171
183 180 177 171 175 176 177 178 177 177 178 174 170 170 170 172 178 187 189 184 182 183 183 180 182 187 186 182 187 192 189 191 195 198 195 203 192 190 190 187 194 197 196
173 174 175 178 184 186 185 186 185 184 179 173 174 175 177 181 188 191 188 185 185 185 184 184 190 193 192 191 196 196 196 200 204 201 202 207 196 205 204 202 207 208 204
179 180 186 189 190 190 189 189 190 185 179 177 180 186 191 192 193 191 188 188 187 188 191 195 198 199 197 197 198 199 204 208 212 210 210 211 207 213 211 211 214 210 206
189 192 193 193 192 191 192 191 190 186 181 181 188 195 194 191 190 190 191 191 191 197 195 195 200 200 199 205 202 204 209 212 219 222 222 223 221 219 214 215 215 208 213
198 198 195 192 194 196 196 193 191 186 181 186 194 193 188 190 193 196 194 192 196 195 192 198 201 203 211 211 205 203 210 212 218 226 231 232 233 231 225 223 217 206 211
200 196 199 198 198 200 195 194 190 179 181 189 192 189 189 194 197 196 192 197 198 195 199 203 202 209 216 213 211 210 210 216 221 225 230 237 235 226 232 233 232 227 225
219 206 203 202 200 191 187 182 174 175 183 191 194 191 192 197 194 191 196 199 193 195 201 204 205 211 222 216 216 214 214 223 227 226 225 231 238 231 224 231 237 239 238
303 228 203 187 173 174 170 158 164 171 180 192 197 194 193 196 194 198 202 198 192 197 202 202 205 214 227 218 216 209 214 227 235 234 231 230 237 238 226 228 241 251 254
38 40 67 118 144 164 151 148 157 162 179 192 196 189 186 189 195 200 200 193 191 200 199 206 210 217 228 224 216 206 214 229 239 241 238 232 233 239 226 227 236 249 256
50 56 64 73 96 138 137 139 143 166 181 173 165 167 177 188 192 190 186 180 189 195 201 211 219 222 230 233 221 210 214 227 237 242 244 239 229 233 230 226 233 244 252
50 59 67 60 54 87 114 120 133 156 134 120 127 148 162 180 185 171 171 172 181 195 208 212 226 230 230 231 230 216 217 223 229 240 244 241 230 231 234 234 241 247 251
52 55 65 62 52 55 81 98 101 104 107 108 114 118 124 137 149 161 166 159 169 189 205 208 228 242 237 240 231 220 216 218 224 240 243 242 237 235 240 240 243 245 243
59 59 63 64 55 51 59 68 74 94 101 102 101 100 106 104 99 113 132 144 166 185 196 207 223 233 236 249 251 241 234 227 232 246 251 246 243 242 253 260 255 244 238
64 65 67 68 59 55 54 50 55 79 87 85 84 82 87 101 102 99 95 119 147 179 190 210 209 209 234 251 229 214 233 233 233 226 233 241 248 254 260 263 262 257 248
62 63 58 59 57 58 53 44 47 70 81 75 68 71 74 80 88 90 76 63 74 69 76 104 157 218 229 319 353 236 251 255 190 174 241 255 258 261 266 270 274 268 262
Height
1476 1478 1480 1482 1486 1490 1494 1499 1504 1509 1514 1519 1523 1527 1532 1536 1540 1543 1547 1549 1552 1554 1556 1558 1560 1562 1563 1565 1566 1567 1568 1569 1570 1571 1572 1573 1574 1575 1576 1577 1578 1578 1579
1474 1476 1478 1479 1482 1486 1491 1496 1501 1506 1511 1516 1521 1526 1531 1535 1538 1542 1545 1548 1550 1553 1555 1557 1559 1561 1562 1564 1565 1566 1567 1568 1570 1571 1572 1573 1575 1575 1575 1576 1577 1578 1579
1471 1473 1474 1476 1478 1482 1487 1493 1498 1503 1509 1514 1519 1525 1529 1533 1536 1540 1543 1546 1549 1551 1553 1556 1558 1560 1561 1563 1564 1565 1566 1567 1569 1570 1571 1572 1573 1574 1575 1575 1576 1577 1578
1469 1470 1472 1473 1475 1479 1484 1489 1495 1501 1506 1511 1517 1521 1526 1530 1534 1538 1541 1545 1548 1550 1552 1554 1556 1558 1560 1562 1563 1564 1565 1566 1567 1568 1569 1571 1571 1573 1574 1575 1575 1576 1577
1467 1468 1470 1471 1474 1477 1481 1486 1493 1498 1504 1509 1514 1520 1524 1529 1533 1537 1540 1544 1546 1549 1551 1553 1555 1557 1559 1560 1561 1562 1564 1565 1566 1567 1568 1569 1570 1571 1572 1573 1574 1575 1576
1465 1467 1469 1470 1473 1477 1481 1485 1491 1497 1502 1507 1512 1517 1523 1527 1532 1535 1539 1542 1545 1547 1549 1552 1554 1556 1557 1559 1560 1561 1562 1563 1564 1565 1566 1567 1568 1569 1570 1571 1572 1573 1574
1464 1465 1467 1469 1472 1476 1480 1485 1490 1496 1501 1506 1511 1516 1521 1526 1530 1534 1538 1541 1543 1546 1548 1550 1552 1554 1556 1557 1558 1559 1560 1561 1562 1563 1564 1566 1567 1568 1569 1570 1571 1571 1572
1462 1464 1467 1469 1472 1476 1480 1485 1490 1494 1500 1505 1510 1515 1520 1525 1529 1533 1537 1540 1542 1545 1547 1549 1551 1553 1554 1556 1557 1558 1559 1560 1560 1561 1563 1564 1565 1566 1567 1568 1569 1569 1570
1461 1464 1467 1470 1473 1476 1480 1485 1489 1494 1499 1504 1509 1514 1519 1523 1528 1532 1535 1538 1541 1543 1546 1548 1550 1551 1553 1554 1555 1556 1557 1558 1559 1560 1561 1562 1563 1564 1565 1566 1567 1568 1568
1460 1463 1467 1470 1474 1477 1481 1485 1490 1494 1499 1504 1508 1513 1517 1522 1526 1530 1533 1536 1539 1541 1544 1546 1547 1549 1551 1552 1553 1554 1555 1556 1557 1558 1559 1560 1561 1562 1563 1564 1564 1565 1566
1458 1462 1465 1469 1473 1477 1481 1485 1489 1493 1498 1502 1507 1511 1516 1520 1524 1528 1531 1534 1537 1539 1542 1544 1545 1547 1549 1550 1551 1552 1553 1554 1555 1556 1557 1558 1559 1560 1561 1561 1562 1562 1563
1457 1460 1464 1467 1471 1475 1479 1483 1487 1492 1496 1501 1505 1510 1514 1518 1522 1525 1529 1532 1534 1537 1539 1541 1543 1545 1546 1548 1549 1550 1551 1552 1553 1554 1555 1556 1557 1557 1558 1558 1559 1560 1560
1455 1459 1462 1465 1469 1473 1477 1481 1485 1489 1494 1499 1503 1507 1511 1515 1519 1522 1526 1528 1531 1534 1536 1538 1540 1542 1544 1545 1546 1547 1548 1549 1550 1551 1552 1553 1554 1554 1555 1555 1556 1557 1557
1453 1456 1459 1463 1466 1470 1474 1478 1482 1487 1491 1496 1500 1504 1508 1512 1516 1519 1522 1525 1528 1530 1533 1535 1537 1539 1540 1542 1543 1544 1545 1546 1547 1548 1549 1549 1550 1551 1551 1552 1552 1553 1553
1452 1454 1456 1460 1463 1467 1471 1475 1479 1484 1488 1493 1497 1500 1505 1509 1512 1515 1518 1521 1524 1526 1529 1531 1533 1535 1537 1538 1539 1541 1542 1542 1543 1544 1545 1545 1546 1547 1548 1548 1549 1549 1549
1449 1451 1454 1457 1460 1463 1467 1471 1476 1480 1485 1489 1493 1497 1501 1504 1508 1511 1514 1517 1519 1522 1525 1527 1529 1531 1532 1534 1535 1537 1537 1538 1539 1540 1541 1542 1542 1543 1543 1544 1544 1544 1544
1447 1448 1451 1453 1456 1460 1464 1467 1472 1477 1481 1485 1489 1493 1496 1500 1503 1506 1509 1512 1515 1517 1519 1522 1524 1526 1528 1529 1531 1532 1533 1534 1535 1536 1536 1537 1538 1538 1539 1539 1539 1539 1539
1444 1446 1448 1450 1453 1456 1460 1464 1469 1473 1477 1481 1485 1488 1492 1495 1498 1501 1504 1507 1509 1512 1514 1516 1519 1520 1522 1524 1526 1527 1528 1528 1529 1530 1531 1532 1532 1533 1533 1533 1533 1533 1533
1443 1444 1445 1447 1450 1453 1457 1461 1465 1469 1473 1476 1480 1483 1487 1490 1493 1496 1499 1501 1504 1506 1509 1511 1513 1515 1517 1519 1521 1522 1522 1523 1523 1524 1525 1526 1526 1527 1527 1527 1526 1526 1526
1442 1442 1443 1445 1448 1450 1454 1457 1461 1465 1468 1472 1476 1479 1483 1486 1489 1491 1494 1496 1499 1501 1503 1505 1507 1509 1511 1513 1515 1516 1516 1516 1517 1518 1518 1519 1519 1520 1520 1520 1520 1519 1519
1443 1442 1443 1444 1446 1448 1451 1454 1458 1461 1465 1470 1473 1476 1478 1481 1484 1487 1489 1492 1494 1496 1497 1499 1502 1503 1505 1507 1508 1509 1510 1510 1510 1511 1511 1512 1513 1513 1513 1513 1513 1512 1512
1444 1443 1444 1445 1446 1448 1450 1453 1457 1460 1464 1467 1470 1473 1475 1478 1480 1483 1485 1487 1490 1491 1493 1494 1496 1498 1499 1501 1502 1502 1503 1504 1504 1504 1505 1505 1506 1506 1506 1506 1505 1506 1505
1445 1445 1445 1446 1447 1449 1451 1453 1458 1461 1463 1465 1468 1470 1473 1476 1477 1479 1481 1483 1485 1487 1489 1490 1491 1492 1494 1495 1496 1497 1497 1497 1497 1498 1498 1499 1499 1500 1500 1499 1499 1499 1498
1448 1449 1448 1449 1451 1452 1453 1456 1459 1461 1463 1465 1468 1470 1472 1473 1475 1477 1479 1481 1482 1484 1485 1486 1487 1488 1489 1490 1491 1491 1492 1492 1492 1492 1492 1493 1493 1493 1493 1493 1493 1492 1491
1453 1453 1453 1454 1455 1456 1457 1459 1462 1463 1464 1466 1468 1469 1471 1472 1474 1475 1477 1478 1480 1481 1482 1483 1484 1484 1484 1485 1486 1486 1486 1487 1487 1487 1487 1486 1486 1485 1485 1485 1485 1485 1484
1457 1458 1459 1459 1460 1461 1462 1463 1465 1465 1466 1467 1469 1470 1472 1473 1474 1475 1476 1477 1478 1479 1480 1480 1481 1481 1482 1482 1482 1482 1482 1482 1482 1481 1480 1480 1480 1479 1478 1478 1478 1478 1477